Location: Unspecified
(0.0000°N, 0.0000°E)
Time: 23:10:48
(UTC+00:00)

XW-2D - Visible Passes

Search period start: 19 January 2018 00:00
Search period end: 29 January 2018 00:00
Orbit: 510 x 530 km, 97.5° (Epoch: 19 January)

Date Brightness Start Highest point End Pass type
(mag) Time Alt. Az. Time Alt. Az. Time Alt. Az.
21 Jan ? 05:36:25 10° NNE 05:40:07 69° E 05:43:50 10° S visible
22 Jan ? 05:23:19 10° NNE 05:26:50 40° ESE 05:30:21 10° S visible
23 Jan ? 05:10:28 10° NE 05:13:32 24° ESE 05:16:37 10° SSE visible
23 Jan ? 18:39:20 10° SW 18:40:51 12° WSW 18:42:21 10° WNW visible
24 Jan ? 04:58:00 10° ENE 05:00:14 15° ESE 05:02:30 10° SE visible
28 Jan ? 05:37:14 10° NNE 05:40:56 72° ESE 05:44:40 10° S visible
